FLOCK 4A-9 (44098 NORAD) Tracking and Keplerian Element Data

This shows tracking and keplerian element data for the satellite.

Feedback or suggestion? Click here.




ElementValue
Catalog44098
NameFLOCK 4A-9
Epoch Orbit435
Epoch Day119.93655981
Epoch Year2019
RAAN180.2726
Inclination97.4615
Eccentricity0.0011534
Argument of Perigee186.0428
Mean Anonmoly174.0671
Mean Motion15.22066703
Decay Rate4.79E-06
L11 44098U 19018W 19119.93655981 .00000479 00000-0 23980-4 0 9997
L22 44098 97.4615 180.2726 0011534 186.0428 174.0671 15.22066703 4358

Live tracking and technical data element details for FLOCK 4A-9 (NORAD 44098). FLOCK 4A-9 can be tracked NOW for your location showing map with azimuth and elevation plus other details from your city location.

Track the satellite on the map from your city or location and see movement details for azimuth, elevation, latitude, longitude, range, height, and movement on the map or in text.







IsCatalogInMostPopularTable: catalog: 44098, numindb: 26
Update: records affected: 1



GetName: 44098 FLOCK 4A-9

Hit Count: updated at: Fri, 19 Jul 2019 22:40:06 GMT